Weather History for Salem, IL

Change the Weather History Date:

Sunday, October 28, 2012

  Actual Average Record
Temperature  
Mean Temperature 44 °F -  
Max Temperature 51 °F 65 °F 80 °F (1971)
Min Temperature 37 °F 40 °F 22 °F (1976)
Degree Days  
Heating Degree Days 21    
Moisture  
Dew Point 31 °F    
Average Humidity 65    
Maximum Humidity 77    
Minimum Humidity 48    
Precipitation  
Precipitation 0.00 in - - ()
Sea Level Pressure  
Sea Level Pressure 30.21 in    
Wind  
Wind Speed 8 mph (North)    
Max Wind Speed 15 mph    
Max Gust Speed 18 mph    
Visibility 10 miles    
Events      
Averages and records for this station are not official NWS values.
T = Trace of Precipitation, MM = Missing Value Source: NWS Daily Summary

Daily Weather History Graph

Daily Weather History Graph

Search for Another Location

Airport:

Trip Planner

Search our weather history database for the weather conditions in past years. The results will help you decide how hot, cold, wet, or windy it might be!

Date:

Astronomy

Oct. 28, 2012 Rise Set
Actual Time 7:18 AM CDT 5:59 PM CDT
Civil Twilight 6:51 AM CDT 6:27 PM CDT
Nautical Twilight 6:20 AM CDT 6:58 PM CDT
Astronomical Twilight 5:49 AM CDT 7:29 PM CDT
Moon 5:17 PM CDT (10/28) 6:12 AM CDT (10/28)
Length of Visible Light 11h 35m
Length of Day
10h 40m
Waxing Gibbous, 99% of the Moon is Illuminated
Oct 28
Waxing Gibbous
Oct 29
Full
Nov 6
Last Quarter
Nov 13
New
Nov 20
First Quarter

Hourly Weather History & Observations

Time (CDT) Temp. Windchill Dew Point Humidity Pressure Visibility Wind Dir Wind Speed Gust Speed Precip Events Conditions
12:15 AM 38.7 °F 34.3 °F 29.8 °F 71% 30.21 in 10.0 mi North 5.8 mph - N/A   Clear
12:35 AM 38.3 °F 33.2 °F 29.7 °F 71% 30.21 in 10.0 mi North 6.9 mph - N/A   Clear
12:55 AM 38.5 °F 33.4 °F 29.7 °F 71% 30.22 in 10.0 mi North 6.9 mph - N/A   Clear
1:15 AM 39.2 °F 34.2 °F 30.2 °F 70% 30.22 in 10.0 mi NNW 6.9 mph - N/A   Clear
1:35 AM 37.9 °F 32.7 °F 30.2 °F 74% 30.22 in 10.0 mi North 6.9 mph - N/A   Clear
1:55 AM 37.8 °F 33.3 °F 30.2 °F 74% 30.22 in 10.0 mi North 5.8 mph - N/A   Clear
2:15 AM 37.8 °F 32.5 °F 30.6 °F 75% 30.21 in 10.0 mi North 6.9 mph - N/A   Clear
2:35 AM 39.2 °F 34.2 °F 32.0 °F 75% 30.21 in 10.0 mi North 6.9 mph - N/A   Clear
2:55 AM 38.3 °F 32.5 °F 31.1 °F 75% 30.21 in 10.0 mi North 8.1 mph - N/A   Clear
3:15 AM 38.3 °F 31.9 °F 31.1 °F 75% 30.21 in 10.0 mi North 9.2 mph - N/A   Clear
3:35 AM 37.8 °F 31.8 °F 31.1 °F 77% 30.20 in 10.0 mi North 8.1 mph - N/A   Clear
3:55 AM 37.8 °F 32.5 °F 31.1 °F 77% 30.20 in 10.0 mi North 6.9 mph - N/A   Clear
4:15 AM 37.8 °F 32.5 °F 31.1 °F 77% 30.20 in 10.0 mi North 6.9 mph - N/A   Clear
4:35 AM 37.8 °F 31.8 °F 30.7 °F 76% 30.20 in 10.0 mi North 8.1 mph - N/A   Clear
4:55 AM 37.6 °F 31.6 °F 30.6 °F 76% 30.20 in 10.0 mi North 8.1 mph - N/A   Clear
5:15 AM 37.6 °F 31.6 °F 30.6 °F 76% 30.21 in 10.0 mi North 8.1 mph - N/A   Clear
5:35 AM 37.6 °F 32.3 °F 30.6 °F 76% 30.21 in 10.0 mi North 6.9 mph - N/A   Clear
5:55 AM 37.4 °F 32.1 °F 30.6 °F 76% 30.21 in 10.0 mi North 6.9 mph - N/A   Clear
6:15 AM 37.6 °F 31.6 °F 30.2 °F 75% 30.21 in 10.0 mi NNW 8.1 mph - N/A   Clear
6:35 AM 37.6 °F 30.5 °F 30.0 °F 74% 30.21 in 10.0 mi North 10.4 mph - N/A   Clear
6:55 AM 37.6 °F 30.5 °F 30.2 °F 75% 30.21 in 10.0 mi North 10.4 mph - N/A   Clear
7:15 AM 37.6 °F 31.0 °F 29.8 °F 74% 30.21 in 10.0 mi North 9.2 mph - N/A   Clear
7:35 AM 37.6 °F 31.0 °F 29.8 °F 74% 30.21 in 10.0 mi North 9.2 mph - N/A   Clear
7:55 AM 37.9 °F 30.9 °F 29.8 °F 73% 30.21 in 10.0 mi North 10.4 mph - N/A   Clear
8:15 AM 38.3 °F 32.5 °F 30.2 °F 73% 30.22 in 10.0 mi North 8.1 mph - N/A   Clear
8:35 AM 38.8 °F 32.6 °F 30.4 °F 72% 30.22 in 10.0 mi North 9.2 mph - N/A   Clear
8:55 AM 39.4 °F 32.7 °F 30.7 °F 71% 30.22 in 10.0 mi North 10.4 mph - N/A   Clear
9:15 AM 40.5 °F 34.1 °F 31.3 °F 70% 30.23 in 10.0 mi North 10.4 mph - N/A   Clear
9:35 AM 41.7 °F 35.6 °F 31.6 °F 67% 30.22 in 10.0 mi North 10.4 mph - N/A   Clear
9:55 AM 42.4 °F 36.5 °F 31.8 °F 66% 30.22 in 10.0 mi North 10.4 mph - N/A   Clear
10:15 AM 43.5 °F 38.3 °F 32.0 °F 64% 30.22 in 10.0 mi North 9.2 mph - N/A   Clear
10:35 AM 44.6 °F 39.7 °F 32.0 °F 61% 30.23 in 10.0 mi North 9.2 mph - N/A   Clear
10:55 AM 46.4 °F 42.4 °F 33.8 °F 62% 30.22 in 10.0 mi North 8.1 mph - N/A   Clear
11:15 AM 47.3 °F - 32.7 °F 57% 30.23 in 10.0 mi NNE 6.9 mph - N/A   Clear
11:35 AM 48.4 °F - 32.5 °F 54% 30.23 in 10.0 mi NE 6.9 mph - N/A   Clear
11:55 AM 48.6 °F - 32.0 °F 53% 30.23 in 10.0 mi North 11.5 mph 16.1 mph N/A   Clear
12:15 PM 49.3 °F - 31.6 °F 51% 30.23 in 10.0 mi NE 8.1 mph 16.1 mph N/A   Scattered Clouds
12:35 PM 50.0 °F - 32.4 °F 51% 30.22 in 10.0 mi North 11.5 mph 17.3 mph N/A   Scattered Clouds
12:55 PM 50.4 °F - 32.7 °F 51% 30.21 in 10.0 mi NNE 10.4 mph - N/A   Scattered Clouds
1:15 PM 50.0 °F - 32.2 °F 50% 30.21 in 10.0 mi North 10.4 mph 17.3 mph N/A   Scattered Clouds
1:35 PM 51.6 °F - 32.7 °F 49% 30.20 in 10.0 mi NNE 9.2 mph - N/A   Mostly Cloudy
1:55 PM 51.1 °F - 32.9 °F 50% 30.19 in 10.0 mi North 15.0 mph - N/A   Mostly Cloudy
2:15 PM 51.1 °F - 32.2 °F 48% 30.19 in 10.0 mi North 13.8 mph - N/A   Mostly Cloudy
2:35 PM 50.2 °F - 31.5 °F 49% 30.19 in 10.0 mi North 13.8 mph - N/A   Overcast
2:55 PM 50.2 °F - 31.3 °F 48% 30.20 in 10.0 mi NNW 12.7 mph - N/A   Overcast
3:15 PM 50.4 °F - 31.1 °F 48% 30.19 in 10.0 mi North 15.0 mph - N/A   Overcast
3:35 PM 50.0 °F - 31.1 °F 48% 30.19 in 10.0 mi North 11.5 mph 16.1 mph N/A   Mostly Cloudy
3:55 PM 49.6 °F - 31.3 °F 49% 30.19 in 10.0 mi North 11.5 mph - N/A   Overcast
4:15 PM 50.0 °F - 32.0 °F 50% 30.19 in 10.0 mi North 15.0 mph 18.4 mph N/A   Overcast
4:35 PM 49.6 °F - 31.3 °F 49% 30.20 in 10.0 mi North 13.8 mph - N/A   Overcast
4:55 PM 49.3 °F - 32.0 °F 51% 30.20 in 10.0 mi North 12.7 mph - N/A   Overcast
5:15 PM 48.6 °F - 31.1 °F 51% 30.20 in 10.0 mi North 12.7 mph - N/A   Overcast
5:35 PM 47.5 °F - 30.0 °F 51% 30.21 in 10.0 mi North 12.7 mph - N/A   Scattered Clouds
5:55 PM 46.8 °F - 31.1 °F 55% 30.21 in 10.0 mi North 8.1 mph - N/A   Mostly Cloudy
6:15 PM 46.6 °F - 31.6 °F 56% 30.21 in 10.0 mi North 9.2 mph - N/A   Mostly Cloudy
6:35 PM 45.3 °F 41.6 °F 32.0 °F 60% 30.21 in 10.0 mi North 6.9 mph - N/A   Mostly Cloudy
6:55 PM 44.6 °F 41.4 °F 32.0 °F 61% 30.21 in 10.0 mi North 5.8 mph - N/A   Scattered Clouds
7:15 PM 43.0 °F 39.5 °F 32.4 °F 66% 30.21 in 10.0 mi NNW 5.8 mph - N/A   Clear
7:35 PM 41.9 °F 38.2 °F 32.0 °F 68% 30.21 in 10.0 mi NW 5.8 mph - N/A   Clear
7:55 PM 41.9 °F 38.2 °F 32.0 °F 68% 30.21 in 10.0 mi NNW 5.8 mph - N/A   Clear
8:15 PM 41.0 °F 38.0 °F 32.0 °F 70% 30.21 in 10.0 mi NNW 4.6 mph - N/A   Clear
8:35 PM 41.0 °F 37.1 °F 32.0 °F 70% 30.21 in 10.0 mi NNW 5.8 mph - N/A   Clear
8:55 PM 41.0 °F 38.0 °F 32.0 °F 70% 30.21 in 10.0 mi NNW 4.6 mph - N/A   Clear
9:35 PM 41.0 °F 36.4 °F 32.0 °F 70% 30.23 in 10.0 mi North 6.9 mph - N/A   Clear
9:55 PM 39.9 °F 35.8 °F 31.8 °F 73% 30.23 in 10.0 mi North 5.8 mph - N/A   Clear
10:15 PM 39.6 °F 34.7 °F 31.6 °F 73% 30.23 in 10.0 mi North 6.9 mph - N/A   Clear
10:35 PM 39.7 °F 34.3 °F 31.1 °F 71% 30.23 in 10.0 mi North 8.1 mph - N/A   Clear
10:55 PM 40.1 °F 34.7 °F 30.4 °F 68% 30.23 in 10.0 mi North 8.1 mph - N/A   Clear
11:15 PM 40.3 °F 35.5 °F 30.2 °F 67% 30.23 in 10.0 mi North 6.9 mph - N/A   Clear
11:35 PM 40.1 °F 35.3 °F 29.8 °F 67% 30.23 in 10.0 mi North 6.9 mph - N/A   Clear
11:55 PM 39.2 °F 33.0 °F 30.2 °F 70% 30.23 in 10.0 mi North 9.2 mph - N/A   Clear